Location: Pasadena-CA
(34.1440°N, 118.1100°W)
Time: 06:12:10
(UTC-07:00)

BlueWalker 3 - Pass Details

Date: 08 March 2024
Orbit: 485 x 495 km, 53.2° (Epoch: 25 April)

Event Time Altitude Azimuth Distance (km) Brightness Sun altitude
Rises 18:18:22 0° 314° (NW) 2,555 6.3 -5.6°
Reaches altitude 10° 18:20:33 10° 313° (NW) 1,669 5.3 -6.1°
Maximum altitude 18:24:18 80° 228° (SW) 495 2.0 -6.9°
Drops below altitude 10° 18:28:02 10° 140° (SE) 1,656 4.2 -7.6°
Enters shadow 18:30:09 - 139° (SE) 2,517 5.1 -8.1°
